Visalia, CA

9:35 AM PDT on July 28, 2017 (GMT -0700)
Visalia Municipal

Weather History for KVIS - November, 2012

Change the Weather History Date:

Friday, November 9, 2012

  Actual Average Record
Temperature  
Mean Temperature 46 °F -  
Max Temperature 53 °F 68 °F 87 °F (1955)
Min Temperature 39 °F 44 °F 33 °F (1945)
Degree Days  
Heating Degree Days 19    
Moisture  
Dew Point 38 °F    
Average Humidity 71    
Maximum Humidity 93    
Minimum Humidity 54    
Precipitation  
Precipitation 0.02 in - - ()
Sea Level Pressure  
Sea Level Pressure 29.96 in    
Wind  
Wind Speed 6 mph (NNW)    
Max Wind Speed 13 mph    
Max Gust Speed -    
Visibility 10 miles    
Events Thunderstorm    
Averages and records for this station are not official NWS values.
T = Trace of Precipitation, MM = Missing Value Source: NWS Daily Summary

Daily Weather History Graph

Daily Weather History Graph

Search for Another Location

Airport or City:

Trip Planner

Search our weather history database for the weather conditions in past years. The results will help you decide how hot, cold, wet, or windy it might be!

Date:

Astronomy

Nov. 09, 2012 Rise Set
Actual Time 6:29 AM PST 4:53 PM PST
Civil Twilight 6:02 AM PST 5:20 PM PST
Nautical Twilight 5:31 AM PST 5:51 PM PST
Astronomical Twilight 5:00 AM PST 6:21 PM PST
Moon 1:41 AM PST (11/9) 2:02 PM PST (11/9)
Length of Visible Light 11h 18m
Length of Day
10h 24m
Waning Crescent, 22% of the Moon is Illuminated
Nov 9
Waning Crescent
Nov 13
New
Nov 20
First Quarter
Nov 28
Full
Dec 6
Last Quarter

Hourly Weather History & Observations

Time (PST) Temp. Windchill Dew Point Humidity Pressure Visibility Wind Dir Wind Speed Gust Speed Precip Events Conditions
12:15 AM 50.0 °F - 39.2 °F 66% 29.93 in 10.0 mi NNW 11.5 mph - N/A   Overcast
12:35 AM 48.2 °F - 39.2 °F 71% 29.94 in 10.0 mi NNW 12.7 mph - N/A   Mostly Cloudy
12:55 AM 48.2 °F - 39.2 °F 71% 29.93 in 10.0 mi North 10.4 mph - N/A   Mostly Cloudy
1:15 AM 48.2 °F - 39.2 °F 71% 29.94 in 10.0 mi NNW 8.1 mph - N/A   Overcast
1:35 AM 48.2 °F - 39.2 °F 71% 29.93 in 10.0 mi NNW 9.2 mph - N/A   Scattered Clouds
1:55 AM 46.4 °F 44.3 °F 39.2 °F 76% 29.94 in 10.0 mi North 4.6 mph - N/A   Partly Cloudy
2:15 AM 46.4 °F 43.5 °F 41.0 °F 81% 29.94 in 10.0 mi NNW 5.8 mph - N/A   Mostly Cloudy
2:35 AM 46.4 °F 43.5 °F 39.2 °F 76% 29.94 in 10.0 mi WNW 5.8 mph - N/A   Mostly Cloudy
2:55 AM 44.6 °F 42.2 °F 39.2 °F 81% 29.94 in 10.0 mi West 4.6 mph - N/A   Clear
3:15 AM 44.6 °F 43.1 °F 37.4 °F 76% 29.94 in 10.0 mi West 3.5 mph - N/A   Clear
3:35 AM 42.8 °F 41.1 °F 37.4 °F 81% 29.94 in 10.0 mi West 3.5 mph - N/A   Clear
4:15 AM 42.8 °F 40.1 °F 37.4 °F 81% 29.94 in 10.0 mi West 4.6 mph - N/A   Clear
4:35 AM 42.8 °F 39.3 °F 37.4 °F 81% 29.94 in 10.0 mi West 5.8 mph - N/A   Clear
4:55 AM 42.8 °F 41.1 °F 37.4 °F 81% 29.94 in 10.0 mi West 3.5 mph - N/A   Clear
5:15 AM 39.2 °F - 35.6 °F 87% 29.94 in 10.0 mi Calm Calm - N/A   Clear
5:35 AM 39.2 °F - 35.6 °F 87% 29.94 in 10.0 mi Calm Calm - N/A   Clear
5:55 AM 39.2 °F - 35.6 °F 87% 29.94 in 10.0 mi Calm Calm - N/A   Clear
6:15 AM 39.2 °F - 35.6 °F 87% 29.95 in 10.0 mi Calm Calm - N/A   Clear
6:55 AM 39.2 °F - 35.6 °F 87% 29.96 in 7.0 mi Calm Calm - N/A   Clear
7:15 AM 39.2 °F 35.9 °F 35.6 °F 87% 29.97 in 10.0 mi ESE 4.6 mph - N/A   Clear
7:35 AM 41.0 °F - 39.2 °F 93% 29.97 in 10.0 mi Calm Calm - N/A   Scattered Clouds
7:55 AM 42.8 °F 40.1 °F 39.2 °F 87% 29.97 in 3.0 mi SSE 4.6 mph - N/A   Mostly Cloudy
8:15 AM 44.6 °F 43.1 °F 42.8 °F 93% 29.98 in 8.0 mi SE 3.5 mph - N/A   Partly Cloudy
8:35 AM - - - N/A% 29.97 in 10.0 mi SSE 4.6 mph - N/A   Clear
8:55 AM - - - N/A% 29.97 in 10.0 mi SSE 6.9 mph - N/A   Clear
9:15 AM - - - N/A% 29.97 in 10.0 mi South 5.8 mph - N/A   Mostly Cloudy
9:35 AM - - - N/A% 29.97 in 10.0 mi SSW 6.9 mph - N/A   Scattered Clouds
9:55 AM - - - N/A% 29.97 in 10.0 mi SSE 5.8 mph - N/A   Partly Cloudy
10:15 AM - - - N/A% 29.97 in 10.0 mi South 6.9 mph - N/A   Clear
10:35 AM - - - N/A% 29.97 in 10.0 mi South 5.8 mph - N/A   Clear
10:55 AM - - - N/A% 29.96 in 10.0 mi Calm Calm - N/A   Clear
11:15 AM - - - N/A% 29.96 in 10.0 mi SSW 3.5 mph - N/A   Scattered Clouds
11:35 AM - - - N/A% 29.95 in 8.0 mi Calm Calm - N/A   Mostly Cloudy
11:55 AM 51.8 °F - 39.2 °F 62% 29.95 in 10.0 mi Calm Calm - N/A Thunderstorm Mostly Cloudy
12:15 PM 51.8 °F - 39.2 °F 62% 29.95 in 9.0 mi WSW 9.2 mph - 0.01 in   Mostly Cloudy
12:35 PM 53.6 °F - 42.8 °F 67% 29.95 in 10.0 mi NNW 11.5 mph - 0.02 in Thunderstorm Mostly Cloudy
12:55 PM 51.8 °F - 41.0 °F 67% 29.94 in 10.0 mi NNE 12.7 mph - 0.02 in   Scattered Clouds
1:15 PM 51.8 °F - 39.2 °F 62% 29.94 in 10.0 mi NNE 10.4 mph - N/A   Scattered Clouds
1:35 PM 50.0 °F - 39.2 °F 66% 29.94 in 10.0 mi NNE 8.1 mph - N/A   Scattered Clouds
1:55 PM 51.8 °F - 41.0 °F 67% 29.93 in 10.0 mi North 9.2 mph - N/A   Partly Cloudy
2:15 PM 53.6 °F - 41.0 °F 62% 29.93 in 10.0 mi North 8.1 mph - N/A   Clear
2:35 PM 53.6 °F - 39.2 °F 58% 29.94 in 10.0 mi NNE 5.8 mph - N/A   Clear
2:55 PM 53.6 °F - 39.2 °F 58% 29.94 in 10.0 mi North 10.4 mph - N/A   Partly Cloudy
3:15 PM 53.6 °F - 39.2 °F 58% 29.94 in 10.0 mi NNE 11.5 mph - N/A   Clear
3:35 PM 53.6 °F - 37.4 °F 54% 29.94 in 10.0 mi NNE 9.2 mph - N/A   Clear
3:55 PM 53.6 °F - 37.4 °F 54% 29.93 in 10.0 mi NNE 8.1 mph - N/A   Clear
4:15 PM 53.6 °F - 37.4 °F 54% 29.93 in 10.0 mi NNE 5.8 mph - N/A   Clear
4:35 PM 51.8 °F - 37.4 °F 58% 29.94 in 10.0 mi NNE 6.9 mph - N/A   Clear
4:55 PM 51.8 °F - 35.6 °F 54% 29.94 in 10.0 mi North 4.6 mph - N/A   Clear
5:15 PM 50.0 °F - 35.6 °F 58% 29.94 in 10.0 mi NNE 4.6 mph - N/A   Clear
5:35 PM 48.2 °F - 35.6 °F 62% 29.95 in 10.0 mi NNE 5.8 mph - N/A   Clear
5:55 PM 48.2 °F - 35.6 °F 62% 29.95 in 10.0 mi North 5.8 mph - N/A   Clear
6:15 PM 48.2 °F - 35.6 °F 62% 29.96 in 10.0 mi North 3.5 mph - N/A   Clear
6:35 PM 46.4 °F 44.3 °F 35.6 °F 66% 29.96 in 10.0 mi North 4.6 mph - N/A   Clear
6:55 PM 46.4 °F - 35.6 °F 66% 29.97 in 10.0 mi Calm Calm - N/A   Clear
7:15 PM 44.6 °F - 35.6 °F 71% 29.97 in 10.0 mi Calm Calm - N/A   Clear
7:35 PM 42.8 °F 39.3 °F 33.8 °F 70% 29.97 in 10.0 mi West 5.8 mph - N/A   Clear
7:55 PM 42.8 °F 41.1 °F 35.6 °F 76% 29.98 in 10.0 mi WNW 3.5 mph - N/A   Clear
8:15 PM 44.6 °F - 35.6 °F 71% 29.99 in 10.0 mi Calm Calm - N/A   Partly Cloudy
8:35 PM 44.6 °F - 35.6 °F 71% 29.99 in 10.0 mi Calm Calm - N/A   Mostly Cloudy
8:55 PM 44.6 °F - 35.6 °F 71% 30.00 in 10.0 mi Calm Calm - N/A   Mostly Cloudy
9:15 PM 44.6 °F - 35.6 °F 71% 30.00 in 10.0 mi Calm Calm - N/A   Mostly Cloudy
9:35 PM 44.6 °F 40.7 °F 37.4 °F 76% 30.01 in 10.0 mi WNW 6.9 mph - N/A   Overcast
9:55 PM 46.4 °F - 37.4 °F 71% 30.01 in 10.0 mi Calm Calm - N/A   Scattered Clouds
10:15 PM 46.4 °F 45.2 °F 37.4 °F 71% 30.01 in 10.0 mi NNE 3.5 mph - N/A   Mostly Cloudy
10:35 PM 46.4 °F 44.3 °F 37.4 °F 71% 30.01 in 10.0 mi NE 4.6 mph - N/A   Overcast
10:55 PM 46.4 °F - 37.4 °F 71% 30.01 in 10.0 mi Calm Calm - N/A   Overcast
11:15 PM 46.4 °F 44.3 °F 37.4 °F 71% 30.02 in 10.0 mi North 4.6 mph - N/A   Overcast
11:35 PM 46.4 °F - 35.6 °F 66% 30.01 in 10.0 mi Calm Calm - N/A   Overcast
11:55 PM 44.6 °F - 37.4 °F 76% 30.02 in 10.0 mi Calm Calm - N/A   Overcast